Back to catalog

STARLINK-35111

AliveCommunicationsVLEO
NORAD 65463·PAYLOAD·🇺🇸 United States

Launched Sep 3, 2025 from Cape Canaveral Space Force Station

Loading…

Next Passes (next 24 hours)

TLE

FreshSource: CelesTrak SupGP

Epoch: Sep 14, 2026, 20:55 UTC

1 65463C 25195F   26257.87201389 -.00047198  00000+0 -15180-2 0  2570
2 65463  53.1575  98.0037 0001259  87.6338  95.2706 15.31720939    11

Track STARLINK-35111 in real time with AllMySat

Download on the App Store